Location: Elm Mott Branch
(32.1549°N, 97.5139°W)
Time: 10:48:22
(UTC+00:00)

Sich 1 Rocket - Pass Details

Date: 18 November 2025
Orbit: 611 x 646 km, 82.5° (Epoch: 07 December)

Event Time Altitude Azimuth Distance (km) Brightness Sun altitude
Rises 12:03:23 0° 355° (N) 2,940 6.8 -12.6°
Reaches altitude 10° 12:05:39 10° 357° (N) 2,023 6.0 -12.1°
Maximum altitude 12:10:08 77° 84° (E) 649 3.8 -11.2°
Drops below altitude 10° 12:14:32 10° 170° (S) 1,988 6.5 -10.3°
Sets 12:16:45 0° 172° (S) 2,884 7.3 -9.9°
